COSMOS 2251 DEB

Satellite information

Favourite Embed

Satellite Type and Status

DEBRISIN ORBIT

Key statistics

Satellite COSMOS 2251 DEB at a glance.

Uptime

11869

Days in orbit

Revolutions

≈ 14.5

Per day

Orbit

LEO

Low Earth Orbit

Inclination

74.0

Latest

Satellite identification and parameters

Extended collection of information and parameters for COSMOS 2251 DEB.

Object identification

Identified? True

Debris? True

Object name: COSMOS 2251 DEB

International designator: 1993-036BLK

Object number (NORAD): 37343

Object ID (CCSDS): 37343

Country: COMMONWEALTH OF INDEPENDENT STATES (CIS)

Current information (Y/N): Y

RCS size: SMALL

Orbital parameters

Period: 99.258 minutes

Inclination: 74.0165 deg

SMA: 7101.305 km

Apoapsis: 787.311 km

Periapsis: 659.03 km

RAAN: 232.1627 deg

Eccentricy: 0.00903221

Argument of periapsis: 301.1445 deg

Mean anomaly: 58.088 deg

Mean motion: 14.50759796 rev/day

Mean motion (dot): 0.00012835 rev/day2

B* drag term: 0.0030956909 1/REarth

Two-line elements (TLE)

Creation date: Oct. 24, 2025, 2:48 a.m.

Reference frame: TEME

Reference center: EARTH

Epoch: Dec. 30, 2024, 8:37 a.m. UTC

TLE line 0: 0 COSMOS 2251 DEB

TLE line 1: 1 37343U 93036BLK 24365.35958354 .00012835 00000-0 30957-2 0 9998

TLE line 2: 2 37343 74.0165 232.1627 0090322 301.1445 58.0880 14.50759796 37307

Live tracking on map

Real-time ground track for satellite COSMOS 2251 DEB.

In-orbit conjunctions

A list of the most updated potential collisions computed for object COSMOS 2251 DEB.

Target Orbit TCA Probability of collision Miss distance Type
COSMOS 2251 DEB LEO 2024-09-26 14:37:03 0.002451103 13.0 (m) DEBRIS
CZ-6A DEB SSO 2024-09-21 03:41:17 0.000110784 192.0 (m) DEBRIS

Associated space launch

Military communications satellite. Destroyed in a collision with Iridium 33.

COSMOS 2251 DEB was lifted into orbit during the mission ‘Kosmos-3M | Strela-2M 51’, on board a Kosmos-3M space rocket.

The launch took place on June 16, 1993, 4:17 a.m. from 132/1 (132L).

For more information about the launch, click the button.

Launch to space Kosmos-3M | Strela-2M 51
Kosmos-3M | Strela-2M 51

Agency: N/A

Status: Launch Successful

Launch date: June 16, 1993, 4:17 a.m. UTC

Rocket: Kosmos-3M

Launch pad: 132/1 (132L)

Location: Plesetsk Cosmodrome, Russian Federation

...

Latest news about this satellite

There are no fresh news available about this satellite. Check back as we update our databases every day.


Newsletter sign-up

Weekly statistics, charts and insights to help you stay on top of the space industry.